Change the Weather History Date:

Monday, November 26, 2012

  Actual Average Record
Temperature  
Mean Temperature 34 °F -  
Max Temperature 42 °F 41 °F 54 °F (1999)
Min Temperature 28 °F 31 °F 19 °F (2010)
Degree Days  
Heating Degree Days 30    
Moisture  
Dew Point 28 °F    
Average Humidity 85    
Maximum Humidity 96    
Minimum Humidity 62    
Precipitation  
Precipitation 0.00 in - - ()
Sea Level Pressure  
Sea Level Pressure 30.37 in    
Wind  
Wind Speed 1 mph (NNW)    
Max Wind Speed 5 mph    
Max Gust Speed -    
Averages and records for this station are not official NWS values.
T = Trace of Precipitation, MM = Missing Value Source: NWS Daily Summary

Daily Weather History Graph

Daily Weather History Graph

Search for Another Location

Airport or City:

Trip Planner

Search our weather history database for the weather conditions in past years. The results will help you decide how hot, cold, wet, or windy it might be!

Date:

Astronomy

Nov. 26, 2012 Rise Set
Actual Time 7:58 AM MST 5:00 PM MST
Civil Twilight 7:25 AM MST 5:34 PM MST
Nautical Twilight 6:48 AM MST 6:11 PM MST
Astronomical Twilight 6:12 AM MST 6:47 PM MST
Moon 3:58 PM MST (11/26) 6:09 AM MST (11/26)
Length of Visible Light 10h 08m
Length of Day
9h 01m
Waxing Gibbous, 97% of the Moon is Illuminated
Nov 26
Waxing Gibbous
Nov 28
Full
Dec 6
Last Quarter
Dec 13
New
Dec 19
First Quarter

Hourly Weather History & Observations

Time (MST) Temp. Windchill Dew Point Humidity Pressure Visibility Wind Dir Wind Speed Gust Speed Precip Events Conditions
12:52 AM 35.1 °F - 30.9 °F 85% 30.42 in - Calm Calm - N/A   Unknown
1:52 AM 33.1 °F - 30.0 °F 89% 30.43 in - Calm Calm - N/A   Unknown
2:52 AM 32.0 °F 28.7 °F 28.9 °F 88% 30.43 in - NNW 3.5 mph - N/A   Unknown
3:52 AM 30.9 °F - 28.9 °F 92% 30.43 in - Calm Calm - N/A   Unknown
4:52 AM 30.0 °F - 28.9 °F 96% 30.43 in - Calm Calm - N/A   Unknown
5:52 AM 30.0 °F - 28.0 °F 92% 30.42 in - Calm Calm - N/A   Unknown
6:52 AM 30.0 °F - 28.0 °F 92% 30.42 in - Calm Calm - N/A   Unknown
7:52 AM 28.9 °F - 27.0 °F 92% 30.42 in - Calm Calm - N/A   Unknown
8:52 AM 30.0 °F 25.2 °F 27.0 °F 88% 30.41 in - NNW 4.6 mph - N/A   Unknown
9:52 AM 30.9 °F 26.2 °F 28.0 °F 89% 30.41 in - NNW 4.6 mph - N/A   Unknown
10:52 AM 35.1 °F - 28.0 °F 76% 30.40 in - Calm Calm - N/A   Unknown
11:52 AM 39.0 °F - 27.0 °F 62% 30.37 in - Calm Calm - N/A   Unknown
12:52 PM 39.9 °F 37.8 °F 28.0 °F 63% 30.33 in - North 3.5 mph - N/A   Unknown
1:52 PM 41.0 °F - 28.9 °F 62% 30.30 in - Calm Calm - N/A   Unknown
2:52 PM 39.0 °F 35.7 °F 30.9 °F 73% 30.29 in - North 4.6 mph - N/A   Unknown
3:52 PM 36.0 °F - 30.0 °F 79% 30.30 in - Calm Calm - N/A   Unknown
4:52 PM 33.1 °F - 30.0 °F 89% 30.31 in - Calm Calm - N/A   Unknown
5:52 PM 30.9 °F - 28.9 °F 92% 30.32 in - Calm Calm - N/A   Unknown
6:52 PM 30.0 °F - 28.0 °F 92% 30.33 in - Calm Calm - N/A   Unknown
7:52 PM 30.0 °F 26.5 °F 28.0 °F 92% 30.34 in - NW 3.5 mph - N/A   Unknown
8:52 PM 28.9 °F - 27.0 °F 92% 30.35 in - Calm Calm - N/A   Unknown
9:52 PM 28.9 °F - 27.0 °F 92% 30.38 in - Calm Calm - N/A   Unknown
10:52 PM 28.9 °F - 27.0 °F 92% 30.37 in - Calm Calm - N/A   Unknown
11:52 PM 28.0 °F - 26.1 °F 92% 30.38 in - Calm Calm - N/A   Unknown